Time,TemperatureF,DewpointF,PressureIn,WindDirection,WindDirectionDegrees,WindSpeedMPH,WindSpeedGustMPH,Humidity,HourlyPrecipIn,Conditions,Clouds,dailyrainin,SoftwareType,DateUTC
2013-08-06 00:01:00,70.7,68.0,-100.00,SSE,167,0.0,5.0,91,0.00,,,0.00,meteohub,2013-08-06 05:01:00,
2013-08-06 00:06:00,70.5,67.8,-100.00,SE,138,0.0,5.0,91,0.00,,,0.00,meteohub,2013-08-06 05:06:00,
2013-08-06 00:11:00,70.5,67.8,-100.00,SE,136,0.0,3.0,91,0.00,,,0.00,meteohub,2013-08-06 05:11:00,
2013-08-06 00:16:00,70.3,67.6,-100.00,SE,135,0.0,1.0,91,0.00,,,0.00,meteohub,2013-08-06 05:16:00,
2013-08-06 00:21:00,70.3,67.6,-100.00,SE,134,0.0,1.0,91,0.00,,,0.00,meteohub,2013-08-06 05:21:00,
2013-08-06 00:26:00,70.2,67.6,-100.00,SE,133,0.0,1.0,92,0.00,,,0.00,meteohub,2013-08-06 05:26:00,
2013-08-06 00:31:00,70.2,67.6,-100.00,SE,126,0.0,1.0,92,0.00,,,0.00,meteohub,2013-08-06 05:31:00,
2013-08-06 00:36:00,70.2,67.6,-100.00,ESE,123,0.0,1.0,92,0.00,,,0.00,meteohub,2013-08-06 05:36:00,
2013-08-06 00:41:00,70.2,67.6,-100.00,ESE,121,0.0,1.0,92,0.00,,,0.00,meteohub,2013-08-06 05:41:00,
2013-08-06 00:46:00,70.2,67.6,-100.00,SE,129,0.0,1.0,92,0.00,,,0.00,meteohub,2013-08-06 05:46:00,
2013-08-06 00:51:00,70.0,67.5,-100.00,SE,128,0.0,1.0,92,0.00,,,0.00,meteohub,2013-08-06 05:51:00,
2013-08-06 00:57:00,70.0,67.5,-100.00,ESE,123,0.0,1.0,92,0.00,,,0.00,meteohub,2013-08-06 05:57:00,
2013-08-06 01:02:00,69.8,67.3,-100.00,SSE,159,0.0,1.0,92,0.00,,,0.00,meteohub,2013-08-06 06:02:00,
2013-08-06 01:07:00,69.6,67.3,-100.00,SE,136,0.0,1.0,92,0.00,,,0.00,meteohub,2013-08-06 06:07:00,
2013-08-06 01:12:00,69.6,67.3,-100.00,SE,144,0.0,1.0,92,0.00,,,0.00,meteohub,2013-08-06 06:12:00,
2013-08-06 01:17:00,69.6,67.3,-100.00,SSE,155,0.0,1.0,92,0.00,,,0.00,meteohub,2013-08-06 06:17:00,
2013-08-06 01:22:00,69.6,67.3,-100.00,ESE,123,0.0,2.0,92,0.00,,,0.00,meteohub,2013-08-06 06:22:00,
2013-08-06 01:27:00,69.6,67.3,-100.00,ESE,123,0.0,4.0,92,0.00,,,0.00,meteohub,2013-08-06 06:27:00,
2013-08-06 01:32:00,69.6,67.3,-100.00,ESE,119,1.0,4.0,92,0.00,,,0.00,meteohub,2013-08-06 06:32:00,
2013-08-06 01:37:00,69.4,67.1,-100.00,ESE,119,0.0,1.0,92,0.00,,,0.00,meteohub,2013-08-06 06:37:00,
2013-08-06 01:42:00,69.4,67.1,-100.00,ESE,119,0.0,1.0,92,0.00,,,0.00,meteohub,2013-08-06 06:42:00,
2013-08-06 01:47:00,69.3,66.9,-100.00,ESE,119,0.0,1.0,92,0.00,,,0.00,meteohub,2013-08-06 06:47:00,
2013-08-06 01:52:00,69.3,67.1,-100.00,ESE,119,0.0,1.0,93,0.00,,,0.00,meteohub,2013-08-06 06:52:00,
2013-08-06 01:57:00,69.3,67.1,-100.00,ESE,118,0.0,1.0,93,0.00,,,0.00,meteohub,2013-08-06 06:57:00,
2013-08-06 02:02:00,69.3,67.1,-100.00,ESE,119,0.0,1.0,93,0.00,,,0.00,meteohub,2013-08-06 07:02:00,
2013-08-06 02:07:00,69.3,66.9,-100.00,ESE,119,0.0,0.0,92,0.00,,,0.00,meteohub,2013-08-06 07:07:00,
2013-08-06 02:12:00,69.3,67.1,-100.00,ESE,121,0.0,1.0,93,0.00,,,0.00,meteohub,2013-08-06 07:12:00,
2013-08-06 02:17:00,69.1,66.9,-100.00,ESE,121,0.0,1.0,93,0.00,,,0.00,meteohub,2013-08-06 07:17:00,
2013-08-06 02:22:00,69.1,66.9,-100.00,ESE,121,0.0,1.0,93,0.00,,,0.00,meteohub,2013-08-06 07:22:00,
2013-08-06 02:27:00,68.9,66.7,-100.00,ESE,121,0.0,1.0,93,0.00,,,0.00,meteohub,2013-08-06 07:27:00,
2013-08-06 02:32:00,68.7,66.6,-100.00,ESE,121,0.0,1.0,93,0.00,,,0.00,meteohub,2013-08-06 07:32:00,
2013-08-06 02:37:00,68.7,66.6,-100.00,ESE,121,0.0,1.0,93,0.00,,,0.00,meteohub,2013-08-06 07:37:00,
2013-08-06 02:42:00,68.5,66.4,-100.00,ESE,121,0.0,1.0,93,0.00,,,0.00,meteohub,2013-08-06 07:42:00,
2013-08-06 02:47:00,68.5,66.4,-100.00,ESE,121,0.0,1.0,93,0.00,,,0.00,meteohub,2013-08-06 07:47:00,
2013-08-06 02:52:00,68.4,66.2,-100.00,ESE,121,0.0,1.0,93,0.00,,,0.00,meteohub,2013-08-06 07:52:00,
2013-08-06 02:57:00,68.4,66.2,-100.00,ESE,121,0.0,1.0,93,0.00,,,0.00,meteohub,2013-08-06 07:57:00,
2013-08-06 03:02:00,68.2,66.0,-100.00,ESE,121,0.0,1.0,93,0.00,,,0.00,meteohub,2013-08-06 08:02:00,
2013-08-06 03:07:00,68.2,66.4,-100.00,ESE,121,0.0,1.0,94,0.00,,,0.00,meteohub,2013-08-06 08:07:00,
2013-08-06 03:12:00,68.2,66.4,-100.00,ESE,121,0.0,1.0,94,0.00,,,0.00,meteohub,2013-08-06 08:12:00,
2013-08-06 03:17:00,68.2,66.4,-100.00,ESE,121,0.0,1.0,94,0.00,,,0.00,meteohub,2013-08-06 08:17:00,
2013-08-06 03:22:00,68.0,66.2,-100.00,ESE,121,0.0,1.0,94,0.00,,,0.00,meteohub,2013-08-06 08:22:00,
2013-08-06 03:27:00,68.0,66.2,-100.00,ESE,121,0.0,0.0,94,0.00,,,0.00,meteohub,2013-08-06 08:27:00,
2013-08-06 03:32:00,67.8,66.0,-100.00,ESE,121,0.0,0.0,94,0.00,,,0.00,meteohub,2013-08-06 08:32:00,
2013-08-06 03:37:00,67.8,66.0,-100.00,ESE,121,0.0,0.0,94,0.00,,,0.00,meteohub,2013-08-06 08:37:00,
2013-08-06 03:42:00,67.8,66.0,-100.00,ESE,121,0.0,0.0,94,0.00,,,0.00,meteohub,2013-08-06 08:42:00,
2013-08-06 03:47:00,67.6,65.8,-100.00,ESE,121,0.0,0.0,94,0.00,,,0.00,meteohub,2013-08-06 08:47:00,
2013-08-06 03:52:00,67.6,65.8,-100.00,ESE,121,0.0,0.0,94,0.00,,,0.00,meteohub,2013-08-06 08:52:00,
2013-08-06 03:57:00,67.6,65.8,-100.00,ESE,121,0.0,0.0,94,0.00,,,0.00,meteohub,2013-08-06 08:57:00,
2013-08-06 04:02:00,67.6,65.8,-100.00,ESE,121,0.0,1.0,94,0.00,,,0.00,meteohub,2013-08-06 09:02:00,
2013-08-06 04:07:00,67.6,65.8,-100.00,ESE,121,0.0,1.0,94,0.00,,,0.00,meteohub,2013-08-06 09:07:00,
2013-08-06 04:12:00,67.6,65.8,-100.00,ESE,121,0.0,1.0,94,0.00,,,0.00,meteohub,2013-08-06 09:12:00,
2013-08-06 04:17:00,67.6,65.8,-100.00,ESE,123,0.0,1.0,94,0.00,,,0.00,meteohub,2013-08-06 09:17:00,
2013-08-06 04:22:00,67.6,65.8,-100.00,ESE,123,0.0,1.0,94,0.00,,,0.00,meteohub,2013-08-06 09:22:00,
2013-08-06 04:27:00,67.6,65.8,-100.00,ESE,123,0.0,1.0,94,0.00,,,0.00,meteohub,2013-08-06 09:27:00,
2013-08-06 04:32:00,67.8,66.0,-100.00,ESE,122,0.0,1.0,94,0.00,,,0.00,meteohub,2013-08-06 09:32:00,
2013-08-06 04:37:00,67.8,66.0,-100.00,SE,124,0.0,1.0,94,0.00,,,0.00,meteohub,2013-08-06 09:37:00,
2013-08-06 04:42:00,67.8,66.0,-100.00,ESE,123,0.0,1.0,94,0.00,,,0.00,meteohub,2013-08-06 09:42:00,
2013-08-06 04:47:00,68.0,66.2,-100.00,SE,126,0.0,1.0,94,0.00,,,0.00,meteohub,2013-08-06 09:47:00,
2013-08-06 04:52:00,68.0,66.2,-100.00,ESE,123,0.0,1.0,94,0.00,,,0.00,meteohub,2013-08-06 09:52:00,
2013-08-06 04:57:00,68.0,66.6,-100.00,ESE,123,0.0,1.0,95,0.00,,,0.00,meteohub,2013-08-06 09:57:00,
2013-08-06 05:02:00,68.2,66.7,-100.00,ESE,118,0.0,1.0,95,0.00,,,0.00,meteohub,2013-08-06 10:02:00,
2013-08-06 05:07:00,68.2,66.7,-100.00,SE,132,0.0,1.0,95,0.00,,,0.00,meteohub,2013-08-06 10:07:00,
2013-08-06 05:12:00,68.2,66.7,-100.00,SE,126,0.0,1.0,95,0.00,,,0.00,meteohub,2013-08-06 10:12:00,
2013-08-06 05:17:00,68.4,66.9,-100.00,ESE,112,0.0,1.0,95,0.00,,,0.00,meteohub,2013-08-06 10:17:00,
2013-08-06 05:22:00,68.4,66.9,-100.00,ESE,115,0.0,1.0,95,0.00,,,0.00,meteohub,2013-08-06 10:22:00,
2013-08-06 05:27:00,68.5,67.1,-100.00,SE,126,0.0,2.0,95,0.00,,,0.00,meteohub,2013-08-06 10:27:00,
2013-08-06 05:32:00,68.5,67.1,-100.00,SSE,147,0.0,3.0,95,0.00,,,0.00,meteohub,2013-08-06 10:32:00,
2013-08-06 05:37:00,68.5,67.1,-100.00,ESE,120,0.0,3.0,95,0.00,,,0.00,meteohub,2013-08-06 10:37:00,
2013-08-06 05:42:00,68.7,67.3,-100.00,SE,125,0.0,3.0,95,0.00,,,0.00,meteohub,2013-08-06 10:42:00,
2013-08-06 05:47:00,68.7,67.3,-100.00,SSE,167,0.0,7.0,95,0.00,,,0.00,meteohub,2013-08-06 10:47:00,
2013-08-06 05:52:00,68.9,67.5,-100.00,SE,128,0.0,7.0,95,0.00,,,0.00,meteohub,2013-08-06 10:52:00,
2013-08-06 05:57:00,68.9,67.5,-100.00,SE,138,0.0,1.0,95,0.00,,,0.00,meteohub,2013-08-06 10:57:00,
2013-08-06 06:02:00,69.1,67.6,-100.00,SE,142,0.0,6.0,95,0.00,,,0.00,meteohub,2013-08-06 11:02:00,
2013-08-06 06:07:00,69.1,67.6,-100.00,SE,126,0.0,6.0,95,0.00,,,0.00,meteohub,2013-08-06 11:07:00,
2013-08-06 06:12:00,69.1,67.6,-100.00,ESE,116,0.0,6.0,95,0.00,,,0.00,meteohub,2013-08-06 11:12:00,
2013-08-06 06:17:00,69.3,67.8,-100.00,ESE,115,0.0,1.0,95,0.00,,,0.00,meteohub,2013-08-06 11:17:00,
2013-08-06 06:22:00,69.3,67.8,-100.00,SE,132,0.0,1.0,95,0.00,,,0.00,meteohub,2013-08-06 11:22:00,
2013-08-06 06:27:00,69.4,68.0,-100.00,SE,130,0.0,1.0,95,0.00,,,0.00,meteohub,2013-08-06 11:27:00,
2013-08-06 06:32:00,69.4,68.0,-100.00,SSE,167,0.0,1.0,95,0.00,,,0.00,meteohub,2013-08-06 11:32:00,
2013-08-06 06:37:00,69.6,68.4,-100.00,SSE,167,0.0,1.0,96,0.00,,,0.00,meteohub,2013-08-06 11:37:00,
2013-08-06 06:42:00,69.6,68.4,-100.00,SSE,148,1.0,1.0,96,0.00,,,0.00,meteohub,2013-08-06 11:42:00,
2013-08-06 06:47:00,69.6,68.4,-100.00,SE,144,0.0,1.0,96,0.00,,,0.00,meteohub,2013-08-06 11:47:00,
2013-08-06 06:52:00,69.6,68.4,-100.00,SSE,167,0.0,1.0,96,0.00,,,0.00,meteohub,2013-08-06 11:52:00,
2013-08-06 06:57:00,69.8,68.5,-100.00,South,173,0.0,1.0,96,0.00,,,0.00,meteohub,2013-08-06 11:57:00,
2013-08-06 07:02:00,70.0,68.7,-100.00,South,171,0.0,1.0,96,0.00,,,0.00,meteohub,2013-08-06 12:02:00,
2013-08-06 07:07:00,70.0,68.7,-100.00,SE,137,1.0,1.0,96,0.00,,,0.00,meteohub,2013-08-06 12:07:00,
2013-08-06 07:12:00,70.0,68.7,-100.00,SSW,207,0.0,1.0,96,0.00,,,0.00,meteohub,2013-08-06 12:12:00,
2013-08-06 07:17:00,70.2,68.9,-100.00,SSE,157,2.0,5.0,96,0.00,,,0.00,meteohub,2013-08-06 12:17:00,
2013-08-06 07:22:00,70.2,68.9,-100.00,South,180,0.0,6.0,96,0.00,,,0.00,meteohub,2013-08-06 12:22:00,
2013-08-06 07:27:00,70.2,68.9,-100.00,South,188,0.0,6.0,96,0.00,,,0.00,meteohub,2013-08-06 12:27:00,
2013-08-06 07:32:00,70.2,68.9,-100.00,South,174,5.0,6.0,96,0.00,,,0.00,meteohub,2013-08-06 12:32:00,
2013-08-06 07:37:00,70.3,69.1,-100.00,South,172,0.0,11.0,96,0.00,,,0.00,meteohub,2013-08-06 12:37:00,
2013-08-06 07:42:00,70.5,69.3,-100.00,South,172,0.0,11.0,96,0.00,,,0.00,meteohub,2013-08-06 12:42:00,
2013-08-06 07:47:00,70.5,69.3,-100.00,South,171,0.0,11.0,96,0.00,,,0.00,meteohub,2013-08-06 12:47:00,
2013-08-06 07:52:00,70.7,69.4,-100.00,South,171,0.0,5.0,96,0.00,,,0.00,meteohub,2013-08-06 12:52:00,
2013-08-06 07:57:00,70.9,69.6,-100.00,South,173,0.0,4.0,96,0.00,,,0.00,meteohub,2013-08-06 12:57:00,
2013-08-06 08:02:00,70.9,69.6,-100.00,South,171,0.0,4.0,96,0.00,,,0.00,meteohub,2013-08-06 13:02:00,
2013-08-06 08:06:00,71.1,69.8,-100.00,South,179,0.0,6.0,96,0.00,,,0.00,meteohub,2013-08-06 13:06:00,
2013-08-06 08:11:00,71.1,69.8,-100.00,SSW,198,0.0,6.0,96,0.00,,,0.00,meteohub,2013-08-06 13:11:00,
2013-08-06 08:16:00,71.2,70.0,-100.00,South,184,0.0,5.0,96,0.00,,,0.00,meteohub,2013-08-06 13:16:00,
2013-08-06 08:21:00,71.4,70.2,-100.00,South,186,0.0,5.0,96,0.00,,,0.00,meteohub,2013-08-06 13:21:00,
2013-08-06 08:26:00,71.6,70.3,-100.00,South,187,0.0,4.0,96,0.00,,,0.00,meteohub,2013-08-06 13:26:00,
2013-08-06 08:31:00,71.8,70.5,-100.00,South,187,0.0,4.0,96,0.00,,,0.00,meteohub,2013-08-06 13:31:00,
2013-08-06 08:36:00,71.8,70.5,-100.00,South,187,0.0,4.0,96,0.00,,,0.00,meteohub,2013-08-06 13:36:00,
2013-08-06 08:41:00,72.0,70.7,-100.00,South,187,0.0,1.0,96,0.00,,,0.00,meteohub,2013-08-06 13:41:00,
2013-08-06 08:46:00,72.0,70.7,-100.00,South,187,0.0,1.0,96,0.00,,,0.00,meteohub,2013-08-06 13:46:00,
2013-08-06 08:51:00,72.1,70.9,-100.00,South,187,0.0,1.0,96,0.00,,,0.00,meteohub,2013-08-06 13:51:00,
2013-08-06 08:56:00,72.5,71.2,-100.00,South,187,0.0,1.0,96,0.00,,,0.00,meteohub,2013-08-06 13:56:00,
2013-08-06 09:01:00,72.9,71.6,-100.00,South,187,0.0,0.0,96,0.00,,,0.00,meteohub,2013-08-06 14:01:00,
2013-08-06 09:06:00,73.0,71.8,-100.00,South,187,0.0,0.0,96,0.00,,,0.00,meteohub,2013-08-06 14:06:00,
2013-08-06 09:11:00,73.2,72.0,-100.00,South,187,0.0,0.0,96,0.00,,,0.00,meteohub,2013-08-06 14:11:00,
2013-08-06 09:16:00,73.0,71.8,-100.00,South,187,0.0,1.0,96,0.00,,,0.00,meteohub,2013-08-06 14:16:00,
2013-08-06 09:21:00,72.9,71.6,-100.00,South,187,0.0,1.0,96,0.00,,,0.00,meteohub,2013-08-06 14:21:00,
2013-08-06 09:26:00,73.0,71.8,-100.00,South,187,0.0,1.0,96,0.00,,,0.00,meteohub,2013-08-06 14:26:00,
2013-08-06 09:31:00,73.4,72.1,-100.00,South,187,0.0,0.0,96,0.00,,,0.00,meteohub,2013-08-06 14:31:00,
2013-08-06 09:36:00,73.6,72.3,-100.00,South,180,0.0,0.0,96,0.00,,,0.00,meteohub,2013-08-06 14:36:00,
2013-08-06 09:41:00,74.1,72.9,-100.00,South,179,0.0,0.0,96,0.00,,,0.00,meteohub,2013-08-06 14:41:00,
2013-08-06 09:46:00,75.0,73.8,-100.00,SSE,166,0.0,0.0,96,0.00,,,0.00,meteohub,2013-08-06 14:46:00,
2013-08-06 09:51:00,75.9,74.7,-100.00,ESE,103,0.0,1.0,96,0.00,,,0.00,meteohub,2013-08-06 14:51:00,
2013-08-06 09:56:00,76.6,75.0,-100.00,ESE,103,0.0,1.0,95,0.00,,,0.00,meteohub,2013-08-06 14:56:00,
2013-08-06 10:01:00,78.1,75.6,-100.00,ESE,103,0.0,1.0,92,0.00,,,0.00,meteohub,2013-08-06 15:01:00,
2013-08-06 10:06:00,78.6,74.8,-100.00,ESE,103,0.0,1.0,88,0.00,,,0.00,meteohub,2013-08-06 15:06:00,
2013-08-06 10:11:00,79.3,74.5,-100.00,ESE,103,0.0,0.0,85,0.00,,,0.00,meteohub,2013-08-06 15:11:00,
2013-08-06 10:15:00,79.5,73.9,-100.00,ESE,103,0.0,0.0,83,0.00,,,0.00,meteohub,2013-08-06 15:15:00,
2013-08-06 10:20:00,79.9,73.9,-100.00,ESE,103,0.0,0.0,82,0.00,,,0.00,meteohub,2013-08-06 15:20:00,
2013-08-06 10:25:00,80.1,74.1,-100.00,ESE,103,0.0,0.0,82,0.00,,,0.00,meteohub,2013-08-06 15:25:00,
2013-08-06 10:30:00,80.8,73.9,-100.00,ESE,102,0.0,0.0,80,0.00,,,0.00,meteohub,2013-08-06 15:30:00,
2013-08-06 10:35:00,81.7,74.1,-100.00,ESE,103,0.0,1.0,78,0.00,,,0.00,meteohub,2013-08-06 15:35:00,
2013-08-06 10:40:00,82.8,74.8,-100.00,ESE,103,0.0,1.0,77,0.00,,,0.00,meteohub,2013-08-06 15:40:00,
2013-08-06 10:45:00,82.9,74.1,-100.00,ESE,102,0.0,1.0,75,0.00,,,0.00,meteohub,2013-08-06 15:45:00,
2013-08-06 10:50:00,82.9,74.7,-100.00,ESE,102,0.0,0.0,76,0.00,,,0.00,meteohub,2013-08-06 15:50:00,
2013-08-06 10:55:00,83.1,73.9,-100.00,ESE,102,0.0,1.0,74,0.00,,,0.00,meteohub,2013-08-06 15:55:00,
2013-08-06 11:01:00,82.2,73.6,-100.00,ESE,102,0.0,2.0,75,0.00,,,0.00,meteohub,2013-08-06 16:01:00,
2013-08-06 11:06:00,82.6,74.3,-100.00,ESE,102,0.0,2.0,76,0.00,,,0.00,meteohub,2013-08-06 16:06:00,
2013-08-06 11:11:00,82.9,74.1,-100.00,ESE,102,0.0,1.0,75,0.00,,,0.00,meteohub,2013-08-06 16:11:00,
2013-08-06 11:16:00,83.1,73.9,-100.00,ESE,102,0.0,1.0,74,0.00,,,0.00,meteohub,2013-08-06 16:16:00,
2013-08-06 11:21:00,82.8,73.9,-100.00,ESE,103,0.0,1.0,75,0.00,,,0.00,meteohub,2013-08-06 16:21:00,
2013-08-06 11:26:00,82.9,74.7,-100.00,SE,129,0.0,0.0,76,0.00,,,0.00,meteohub,2013-08-06 16:26:00,
2013-08-06 11:31:00,83.5,74.7,-100.00,SSW,213,5.0,13.0,75,0.00,,,0.00,meteohub,2013-08-06 16:31:00,
2013-08-06 11:36:00,83.3,74.1,-100.00,SE,141,0.0,13.0,74,0.00,,,0.00,meteohub,2013-08-06 16:36:00,
2013-08-06 11:41:00,82.8,73.9,-100.00,South,173,3.0,13.0,75,0.00,,,0.00,meteohub,2013-08-06 16:41:00,
2013-08-06 11:46:00,82.6,73.8,-100.00,SSE,167,0.0,13.0,75,0.00,,,0.00,meteohub,2013-08-06 16:46:00,
2013-08-06 11:51:00,82.6,74.3,-100.00,SSW,202,11.0,13.0,76,0.00,,,0.00,meteohub,2013-08-06 16:51:00,
2013-08-06 11:56:00,83.1,74.8,-100.00,SSW,196,0.0,13.0,76,0.00,,,0.00,meteohub,2013-08-06 16:56:00,
2013-08-06 12:01:00,83.8,73.8,-100.00,SE,138,0.0,11.0,72,0.00,,,0.00,meteohub,2013-08-06 17:01:00,
2013-08-06 12:06:00,84.0,74.5,-100.00,SE,146,1.0,11.0,73,0.00,,,0.00,meteohub,2013-08-06 17:06:00,
2013-08-06 12:11:00,83.7,74.1,-100.00,SE,130,0.0,10.0,73,0.00,,,0.00,meteohub,2013-08-06 17:11:00,
2013-08-06 12:16:00,84.4,74.8,-100.00,SE,130,0.0,10.0,73,0.00,,,0.00,meteohub,2013-08-06 17:16:00,
2013-08-06 12:21:00,85.5,74.5,-100.00,South,186,0.0,10.0,70,0.00,,,0.00,meteohub,2013-08-06 17:21:00,
2013-08-06 12:26:00,85.6,74.7,-100.00,South,186,0.0,11.0,70,0.00,,,0.00,meteohub,2013-08-06 17:26:00,
2013-08-06 12:31:00,85.6,74.3,-100.00,South,186,1.0,11.0,69,0.00,,,0.00,meteohub,2013-08-06 17:31:00,
2013-08-06 12:36:00,86.0,75.0,-100.00,South,187,0.0,11.0,70,0.00,,,0.00,meteohub,2013-08-06 17:36:00,
2013-08-06 12:41:00,86.0,75.0,-100.00,SSE,150,4.0,11.0,70,0.00,,,0.00,meteohub,2013-08-06 17:41:00,
2013-08-06 12:46:00,85.6,73.9,-100.00,SE,146,0.0,11.0,68,0.00,,,0.00,meteohub,2013-08-06 17:46:00,
2013-08-06 12:51:00,85.5,74.1,-100.00,SE,144,0.0,7.0,69,0.00,,,0.00,meteohub,2013-08-06 17:51:00,
2013-08-06 12:56:00,85.8,74.5,-100.00,SE,142,0.0,6.0,69,0.00,,,0.00,meteohub,2013-08-06 17:56:00,
2013-08-06 13:01:00,85.8,73.9,-100.00,SSE,167,0.0,3.0,68,0.00,,,0.00,meteohub,2013-08-06 18:01:00,
2013-08-06 13:06:00,85.8,73.9,-100.00,SSE,167,0.0,3.0,68,0.00,,,0.00,meteohub,2013-08-06 18:06:00,
2013-08-06 13:11:00,86.2,74.3,-100.00,South,178,2.0,6.0,68,0.00,,,0.00,meteohub,2013-08-06 18:11:00,
2013-08-06 13:16:00,86.2,74.8,-100.00,South,178,0.0,6.0,69,0.00,,,0.00,meteohub,2013-08-06 18:16:00,
2013-08-06 13:21:00,86.5,74.7,-100.00,SE,146,0.0,6.0,68,0.00,,,0.00,meteohub,2013-08-06 18:21:00,
2013-08-06 13:26:00,87.4,75.2,-100.00,SE,145,0.0,9.0,67,0.00,,,0.00,meteohub,2013-08-06 18:26:00,
2013-08-06 13:31:00,87.8,75.4,-100.00,ESE,121,6.0,9.0,67,0.00,,,0.00,meteohub,2013-08-06 18:31:00,
2013-08-06 13:36:00,88.2,74.8,-100.00,ESE,121,1.0,11.0,65,0.00,,,0.00,meteohub,2013-08-06 18:36:00,
2013-08-06 13:41:00,88.2,74.5,-100.00,SSW,200,3.0,11.0,64,0.00,,,0.00,meteohub,2013-08-06 18:41:00,
2013-08-06 13:46:00,87.8,74.1,-100.00,SSW,205,0.0,11.0,64,0.00,,,0.00,meteohub,2013-08-06 18:46:00,
2013-08-06 13:51:00,87.4,74.3,-100.00,SE,126,6.0,15.0,65,0.00,,,0.00,meteohub,2013-08-06 18:51:00,
2013-08-06 13:56:00,87.8,75.0,-100.00,SSE,156,0.0,16.0,66,0.00,,,0.00,meteohub,2013-08-06 18:56:00,
2013-08-06 14:01:00,89.1,74.8,-100.00,SSW,210,0.0,16.0,63,0.00,,,0.00,meteohub,2013-08-06 19:01:00,
2013-08-06 14:06:00,89.1,74.3,-100.00,SSW,200,2.0,16.0,62,0.00,,,0.00,meteohub,2013-08-06 19:06:00,
2013-08-06 14:11:00,88.5,73.8,-100.00,SSE,153,0.0,16.0,62,0.00,,,0.00,meteohub,2013-08-06 19:11:00,
2013-08-06 14:16:00,87.6,74.3,-100.00,ESE,118,0.0,10.0,65,0.00,,,0.00,meteohub,2013-08-06 19:16:00,
2013-08-06 14:21:00,87.4,75.2,-100.00,SSW,193,2.0,11.0,67,0.00,,,0.00,meteohub,2013-08-06 19:21:00,
2013-08-06 14:26:00,87.4,75.6,-100.00,SE,139,5.0,16.0,68,0.00,,,0.00,meteohub,2013-08-06 19:26:00,
2013-08-06 14:31:00,87.6,74.8,-100.00,South,188,2.0,16.0,66,0.00,,,0.00,meteohub,2013-08-06 19:31:00,
2013-08-06 14:36:00,87.4,74.7,-100.00,South,188,5.0,15.0,66,0.00,,,0.00,meteohub,2013-08-06 19:36:00,
2013-08-06 14:39:00,87.1,74.3,-100.00,SSE,167,2.0,15.0,66,0.00,,,0.00,meteohub,2013-08-06 19:39:00,
2013-08-06 14:44:00,86.4,74.5,-100.00,SSW,206,5.0,15.0,68,0.00,,,0.00,meteohub,2013-08-06 19:44:00,
2013-08-06 14:49:00,86.2,73.9,-100.00,ESE,123,6.0,18.0,67,0.00,,,0.00,meteohub,2013-08-06 19:49:00,
2013-08-06 14:54:00,87.1,75.2,-100.00,South,186,10.0,18.0,68,0.00,,,0.00,meteohub,2013-08-06 19:54:00,
2013-08-06 14:59:00,87.4,74.7,-100.00,SSW,205,6.0,18.0,66,0.00,,,0.00,meteohub,2013-08-06 19:59:00,
2013-08-06 15:04:00,87.3,74.1,-100.00,SSE,151,3.0,13.0,65,0.00,,,0.00,meteohub,2013-08-06 20:04:00,
2013-08-06 15:09:00,88.0,74.3,-100.00,SSW,198,0.0,14.0,64,0.00,,,0.00,meteohub,2013-08-06 20:09:00,
2013-08-06 15:14:00,88.3,74.7,-100.00,South,186,9.0,14.0,64,0.00,,,0.00,meteohub,2013-08-06 20:14:00,
2013-08-06 15:19:00,87.4,74.3,-100.00,SSW,207,4.0,14.0,65,0.00,,,0.00,meteohub,2013-08-06 20:19:00,
2013-08-06 15:24:00,87.8,74.5,-100.00,South,191,7.0,12.0,65,0.00,,,0.00,meteohub,2013-08-06 20:24:00,
2013-08-06 15:29:00,88.0,74.3,-100.00,SSE,163,2.0,12.0,64,0.00,,,0.00,meteohub,2013-08-06 20:29:00,
2013-08-06 15:34:00,88.0,73.8,-100.00,SSW,200,5.0,19.0,63,0.00,,,0.00,meteohub,2013-08-06 20:34:00,
2013-08-06 15:39:00,88.0,74.3,-100.00,SE,126,2.0,19.0,64,0.00,,,0.00,meteohub,2013-08-06 20:39:00,
2013-08-06 15:44:00,87.4,74.3,-100.00,SSW,206,11.0,16.0,65,0.00,,,0.00,meteohub,2013-08-06 20:44:00,
2013-08-06 15:49:00,86.9,74.7,-100.00,South,187,4.0,16.0,67,0.00,,,0.00,meteohub,2013-08-06 20:49:00,
2013-08-06 15:54:00,87.3,74.1,-100.00,SSW,192,2.0,16.0,65,0.00,,,0.00,meteohub,2013-08-06 20:54:00,
2013-08-06 15:59:00,87.3,75.4,-100.00,SSW,207,0.0,16.0,68,0.00,,,0.00,meteohub,2013-08-06 20:59:00,
2013-08-06 16:04:00,87.1,74.8,-100.00,SW,216,6.0,12.0,67,0.00,,,0.00,meteohub,2013-08-06 21:04:00,
2013-08-06 16:09:00,86.5,74.7,-100.00,South,184,5.0,11.0,68,0.00,,,0.00,meteohub,2013-08-06 21:09:00,
2013-08-06 16:14:00,86.7,74.5,-100.00,South,172,0.0,12.0,67,0.00,,,0.00,meteohub,2013-08-06 21:14:00,
2013-08-06 16:19:00,86.9,75.6,-100.00,SSW,192,8.0,12.0,69,0.00,,,0.00,meteohub,2013-08-06 21:19:00,
2013-08-06 16:24:00,86.2,74.3,-100.00,SSW,202,4.0,12.0,68,0.00,,,0.00,meteohub,2013-08-06 21:24:00,
2013-08-06 16:29:00,85.6,74.7,-100.00,SSW,199,9.0,14.0,70,0.00,,,0.00,meteohub,2013-08-06 21:29:00,
2013-08-06 16:34:00,85.5,75.0,-100.00,South,183,4.0,15.0,71,0.00,,,0.00,meteohub,2013-08-06 21:34:00,
2013-08-06 16:39:00,85.6,74.3,-100.00,South,171,5.0,15.0,69,0.00,,,0.00,meteohub,2013-08-06 21:39:00,
2013-08-06 16:44:00,85.5,74.5,-100.00,South,191,3.0,15.0,70,0.00,,,0.00,meteohub,2013-08-06 21:44:00,
2013-08-06 16:49:00,85.8,74.8,-100.00,SSW,196,0.0,15.0,70,0.00,,,0.00,meteohub,2013-08-06 21:49:00,
2013-08-06 16:54:00,86.0,74.1,-100.00,SW,219,7.0,15.0,68,0.00,,,0.00,meteohub,2013-08-06 21:54:00,
2013-08-06 16:59:00,85.8,74.5,-100.00,South,183,4.0,15.0,69,0.00,,,0.00,meteohub,2013-08-06 21:59:00,
2013-08-06 17:07:00,86.7,74.8,-100.00,SW,220,7.0,13.0,68,0.00,,,0.00,meteohub,2013-08-06 22:07:00,
2013-08-06 17:12:00,87.1,74.8,-100.00,SSW,211,8.0,13.0,67,0.00,,,0.00,meteohub,2013-08-06 22:12:00,
2013-08-06 17:17:00,86.7,74.8,-100.00,South,178,9.0,13.0,68,0.00,,,0.00,meteohub,2013-08-06 22:17:00,
2013-08-06 17:22:00,86.5,74.3,-100.00,SW,226,5.0,13.0,67,0.00,,,0.00,meteohub,2013-08-06 22:22:00,
2013-08-06 17:27:00,86.4,74.5,-100.00,South,188,3.0,12.0,68,0.00,,,0.00,meteohub,2013-08-06 22:27:00,
2013-08-06 17:32:00,86.2,73.9,-100.00,SE,146,0.0,12.0,67,0.00,,,0.00,meteohub,2013-08-06 22:32:00,
2013-08-06 17:37:00,86.4,74.5,-100.00,SSW,198,0.0,12.0,68,0.00,,,0.00,meteohub,2013-08-06 22:37:00,
2013-08-06 17:42:00,86.5,74.3,-100.00,SSW,199,3.0,12.0,67,0.00,,,0.00,meteohub,2013-08-06 22:42:00,
2013-08-06 17:47:00,86.9,74.7,-100.00,SSW,192,4.0,11.0,67,0.00,,,0.00,meteohub,2013-08-06 22:47:00,
2013-08-06 17:52:00,86.4,74.5,-100.00,South,180,2.0,11.0,68,0.00,,,0.00,meteohub,2013-08-06 22:52:00,
2013-08-06 17:57:00,85.8,74.5,-100.00,ESE,107,6.0,10.0,69,0.00,,,0.00,meteohub,2013-08-06 22:57:00,
2013-08-06 18:02:00,85.8,74.8,-100.00,SE,144,2.0,10.0,70,0.00,,,0.00,meteohub,2013-08-06 23:02:00,
2013-08-06 18:07:00,86.4,75.0,-100.00,SE,141,0.0,10.0,69,0.00,,,0.00,meteohub,2013-08-06 23:07:00,
2013-08-06 18:12:00,86.4,74.5,-100.00,SSE,149,0.0,10.0,68,0.00,,,0.00,meteohub,2013-08-06 23:12:00,
2013-08-06 18:17:00,86.2,74.3,-100.00,SSE,149,1.0,10.0,68,0.00,,,0.00,meteohub,2013-08-06 23:17:00,
2013-08-06 18:22:00,86.4,75.0,-100.00,SSE,155,1.0,6.0,69,0.00,,,0.00,meteohub,2013-08-06 23:22:00,
2013-08-06 18:27:00,85.8,73.9,-100.00,SSE,168,2.0,6.0,68,0.00,,,0.00,meteohub,2013-08-06 23:27:00,
2013-08-06 18:32:00,85.1,74.1,-100.00,SSE,167,0.0,13.0,70,0.00,,,0.00,meteohub,2013-08-06 23:32:00,
2013-08-06 18:37:00,84.6,73.8,-100.00,SSE,154,0.0,13.0,70,0.00,,,0.00,meteohub,2013-08-06 23:37:00,
2013-08-06 18:42:00,84.0,73.6,-100.00,SSE,153,0.0,11.0,71,0.00,,,0.00,meteohub,2013-08-06 23:42:00,
2013-08-06 18:47:00,83.8,73.8,-100.00,SSE,154,3.0,6.0,72,0.00,,,0.00,meteohub,2013-08-06 23:47:00,
2013-08-06 18:52:00,83.8,73.8,-100.00,SSE,154,0.0,6.0,72,0.00,,,0.00,meteohub,2013-08-06 23:52:00,
2013-08-06 18:57:00,83.8,73.8,-100.00,SSE,153,0.0,5.0,72,0.00,,,0.00,meteohub,2013-08-06 23:57:00,
2013-08-06 19:02:00,84.0,73.6,-100.00,SSE,158,9.0,9.0,71,0.00,,,0.00,meteohub,2013-08-07 00:02:00,
2013-08-06 19:07:00,84.0,73.9,-100.00,SSE,158,0.0,11.0,72,0.00,,,0.00,meteohub,2013-08-07 00:07:00,
2013-08-06 19:12:00,84.0,73.6,-100.00,SSE,157,0.0,11.0,71,0.00,,,0.00,meteohub,2013-08-07 00:12:00,
2013-08-06 19:17:00,84.0,73.9,-100.00,SSE,157,0.0,11.0,72,0.00,,,0.00,meteohub,2013-08-07 00:17:00,
2013-08-06 19:22:00,83.8,73.8,-100.00,SSE,157,0.0,6.0,72,0.00,,,0.00,meteohub,2013-08-07 00:22:00,
2013-08-06 19:27:00,83.7,73.6,-100.00,SSE,157,0.0,0.0,72,0.00,,,0.00,meteohub,2013-08-07 00:27:00,
2013-08-06 19:32:00,83.1,73.6,-100.00,SSE,157,0.0,0.0,73,0.00,,,0.00,meteohub,2013-08-07 00:32:00,
2013-08-06 19:37:00,82.9,73.8,-100.00,SSE,157,0.0,0.0,74,0.00,,,0.00,meteohub,2013-08-07 00:37:00,
2013-08-06 19:42:00,82.8,73.9,-100.00,SSE,157,0.0,7.0,75,0.00,,,0.00,meteohub,2013-08-07 00:42:00,
2013-08-06 19:47:00,82.4,74.1,-100.00,SSE,157,0.0,7.0,76,0.00,,,0.00,meteohub,2013-08-07 00:47:00,
2013-08-06 19:52:00,82.0,73.8,-100.00,SSE,157,0.0,4.0,76,0.00,,,0.00,meteohub,2013-08-07 00:52:00,
2013-08-06 19:57:00,81.9,73.9,-100.00,SSE,156,0.0,2.0,77,0.00,,,0.00,meteohub,2013-08-07 00:57:00,
2013-08-06 20:02:00,81.5,73.6,-100.00,SSE,157,0.0,2.0,77,0.00,,,0.00,meteohub,2013-08-07 01:02:00,
2013-08-06 20:07:00,81.1,73.6,-100.00,SSE,156,0.0,2.0,78,0.00,,,0.00,meteohub,2013-08-07 01:07:00,
2013-08-06 20:12:00,81.0,73.4,-100.00,SSE,156,0.0,2.0,78,0.00,,,0.00,meteohub,2013-08-07 01:12:00,
2013-08-06 20:17:00,80.8,73.6,-100.00,SSE,157,0.0,0.0,79,0.00,,,0.00,meteohub,2013-08-07 01:17:00,
2013-08-06 20:22:00,80.4,73.2,-100.00,SSE,157,0.0,0.0,79,0.00,,,0.00,meteohub,2013-08-07 01:22:00,
2013-08-06 20:27:00,80.2,73.6,-100.00,SSE,157,0.0,0.0,80,0.00,,,0.00,meteohub,2013-08-07 01:27:00,
2013-08-06 20:32:00,80.1,73.8,-100.00,SSE,156,0.0,0.0,81,0.00,,,0.00,meteohub,2013-08-07 01:32:00,
2013-08-06 20:37:00,79.7,73.4,-100.00,SSE,157,0.0,0.0,81,0.00,,,0.00,meteohub,2013-08-07 01:37:00,
2013-08-06 20:42:00,79.3,73.4,-100.00,SSE,156,0.0,0.0,82,0.00,,,0.00,meteohub,2013-08-07 01:42:00,
2013-08-06 20:47:00,79.2,73.2,-100.00,SSE,156,0.0,0.0,82,0.00,,,0.00,meteohub,2013-08-07 01:47:00,
2013-08-06 20:52:00,79.0,73.4,-100.00,SSE,157,0.0,0.0,83,0.00,,,0.00,meteohub,2013-08-07 01:52:00,
2013-08-06 20:57:00,79.0,73.4,-100.00,SSE,157,0.0,0.0,83,0.00,,,0.00,meteohub,2013-08-07 01:57:00,
2013-08-06 21:02:00,78.6,73.0,-100.00,SSE,156,0.0,0.0,83,0.00,,,0.00,meteohub,2013-08-07 02:02:00,
2013-08-06 21:07:00,78.6,73.4,-100.00,SSE,157,0.0,0.0,84,0.00,,,0.00,meteohub,2013-08-07 02:07:00,
2013-08-06 21:12:00,78.4,73.2,-100.00,SSE,157,0.0,0.0,84,0.00,,,0.00,meteohub,2013-08-07 02:12:00,
2013-08-06 21:17:00,78.3,73.0,-100.00,SSE,156,0.0,0.0,84,0.00,,,0.00,meteohub,2013-08-07 02:17:00,
2013-08-06 21:22:00,78.1,72.9,-100.00,SSE,157,0.0,0.0,84,0.00,,,0.00,meteohub,2013-08-07 02:22:00,
2013-08-06 21:27:00,77.7,72.9,-100.00,SSE,156,0.0,0.0,85,0.00,,,0.00,meteohub,2013-08-07 02:27:00,
2013-08-06 21:32:00,77.7,72.9,-100.00,SSE,157,0.0,0.0,85,0.00,,,0.00,meteohub,2013-08-07 02:32:00,
2013-08-06 21:38:00,77.7,72.9,-100.00,SSE,156,0.0,0.0,85,0.00,,,0.00,meteohub,2013-08-07 02:38:00,
2013-08-06 21:43:00,77.7,72.9,-100.00,SSE,157,0.0,0.0,85,0.00,,,0.00,meteohub,2013-08-07 02:43:00,
2013-08-06 21:48:00,77.7,72.9,-100.00,SSE,157,0.0,0.0,85,0.00,,,0.00,meteohub,2013-08-07 02:48:00,
2013-08-06 21:53:00,77.5,72.7,-100.00,SSE,157,0.0,0.0,85,0.00,,,0.00,meteohub,2013-08-07 02:53:00,
2013-08-06 21:58:00,77.2,72.7,-100.00,SSE,156,0.0,2.0,86,0.00,,,0.00,meteohub,2013-08-07 02:58:00,
2013-08-06 22:03:00,76.8,72.3,-100.00,SSE,157,0.0,2.0,86,0.00,,,0.00,meteohub,2013-08-07 03:03:00,
2013-08-06 22:08:00,76.5,72.3,-100.00,SSE,156,0.0,2.0,87,0.00,,,0.00,meteohub,2013-08-07 03:08:00,
2013-08-06 22:13:00,75.9,71.8,-100.00,SSE,157,0.0,1.0,87,0.00,,,0.00,meteohub,2013-08-07 03:13:00,
2013-08-06 22:18:00,75.7,72.0,-100.00,SSE,157,0.0,1.0,88,0.00,,,0.00,meteohub,2013-08-07 03:18:00,
2013-08-06 22:23:00,75.6,71.8,-100.00,SSE,156,0.0,0.0,88,0.00,,,0.00,meteohub,2013-08-07 03:23:00,
2013-08-06 22:28:00,75.6,72.1,-100.00,SSE,157,0.0,0.0,89,0.00,,,0.00,meteohub,2013-08-07 03:28:00,
2013-08-06 22:33:00,75.7,72.0,-100.00,SSE,156,0.0,0.0,88,0.00,,,0.00,meteohub,2013-08-07 03:33:00,
2013-08-06 22:38:00,75.9,72.1,-100.00,SSE,157,0.0,0.0,88,0.00,,,0.00,meteohub,2013-08-07 03:38:00,
2013-08-06 22:43:00,75.9,72.1,-100.00,SSE,156,0.0,0.0,88,0.00,,,0.00,meteohub,2013-08-07 03:43:00,
2013-08-06 22:48:00,75.7,72.0,-100.00,SSE,157,0.0,0.0,88,0.00,,,0.00,meteohub,2013-08-07 03:48:00,
2013-08-06 22:53:00,75.6,71.8,-100.00,SSE,156,0.0,0.0,88,0.00,,,0.00,meteohub,2013-08-07 03:53:00,
2013-08-06 22:58:00,75.4,71.6,-100.00,SSE,157,0.0,0.0,88,0.00,,,0.00,meteohub,2013-08-07 03:58:00,
2013-08-06 23:01:00,75.4,71.6,-100.00,SSE,156,0.0,0.0,88,0.00,,,0.00,meteohub,2013-08-07 04:01:00,
2013-08-06 23:06:00,75.0,71.2,-100.00,SSE,157,0.0,0.0,88,0.00,,,0.00,meteohub,2013-08-07 04:06:00,
2013-08-06 23:11:00,74.8,71.4,-100.00,SSE,156,0.0,0.0,89,0.00,,,0.00,meteohub,2013-08-07 04:11:00,
2013-08-06 23:16:00,74.7,71.2,-100.00,SSE,157,0.0,0.0,89,0.00,,,0.00,meteohub,2013-08-07 04:16:00,
2013-08-06 23:21:00,74.7,71.2,-100.00,SSE,157,0.0,0.0,89,0.00,,,0.00,meteohub,2013-08-07 04:21:00,
2013-08-06 23:26:00,74.7,71.2,-100.00,SSE,157,0.0,0.0,89,0.00,,,0.00,meteohub,2013-08-07 04:26:00,
2013-08-06 23:31:00,74.5,71.1,-100.00,SSE,156,0.0,0.0,89,0.00,,,0.00,meteohub,2013-08-07 04:31:00,
2013-08-06 23:36:00,74.5,71.4,-100.00,SSE,157,0.0,0.0,90,0.00,,,0.00,meteohub,2013-08-07 04:36:00,
2013-08-06 23:41:00,74.5,71.4,-100.00,SSE,156,0.0,0.0,90,0.00,,,0.00,meteohub,2013-08-07 04:41:00,
2013-08-06 23:46:00,74.3,71.2,-100.00,SSE,157,0.0,0.0,90,0.00,,,0.00,meteohub,2013-08-07 04:46:00,
2013-08-06 23:51:00,74.3,71.2,-100.00,SSE,157,0.0,1.0,90,0.00,,,0.00,meteohub,2013-08-07 04:51:00,
2013-08-06 23:56:00,74.7,71.6,-100.00,SSE,156,0.0,1.0,90,0.00,,,0.00,meteohub,2013-08-07 04:56:00,